Flag for Norway Weather past 2 weeks in Porsgrunn, Norway

Now
40 °F

Chilly.


Feels Like: 40 °F
Forecast: 33 / 41 °F
Wind: 2 mph from Southwest

Location: Jomfruland Fyr

Current Time: Feb 27, 2015 at 6:11:08 AM

Latest Report: Feb 27, 2015 at 5:00 AM


Visibility: N/A

Pressure: 29.65 "Hg

Humidity: 94%

Dew point: 38 °F

Location of PorsgrunnLocation

Historic Weather in Porsgrunn — Graph

°F

Porsgrunn temperature yesterday

Maximum temperature yesterday: 39 °F (at 5:00 PM)
Minimum temperature yesterday: 30 °F (at 2:00 AM)
Average temperature yesterday: 37 °F

Past Weeks' High & Low Weather Summary

 TemperatureHumidityPressure
High45 °F (Feb 18, 3:00 PM)96% (Feb 19, 9:00 AM)30.49 "Hg (Feb 19, 9:00 AM)
Low30 °F (Feb 26, 2:00 AM)45% (Feb 22, 12:00 PM)28.94 "Hg (Feb 23, 11:00 AM)
Average38 °F86%29.78 "Hg
* Reported Feb 12 2:00 AM — Feb 27 2:00 AM, Porsgrunn, Weather by CustomWeather, © 2015

Note: Actual official high and low records may vary slightly from our data, if they occured in-between our weather recording intervals... More about our weather records

Advertising

Porsgrunn weather history for previous 24 hours

 ConditionsComfort  
Time TempWeatherWind HumidityBarometerVisibility
2:00 AM
Fri, Feb 27
40 °FChilly.9 mph93%29.67 "HgN/A
1:00 AM39 °FChilly.9 mph92%29.69 "HgN/A
12:00 AM38 °FChilly.12 mph91%29.70 "HgN/A
11:00 PM
Thu, Feb 26
37 °FChilly.13 mph91%29.72 "HgN/A
10:00 PM38 °FChilly.12 mph91%29.73 "HgN/A
9:00 PM38 °FChilly.12 mph90%29.74 "HgN/A
8:00 PM39 °FChilly.12 mph91%29.76 "HgN/A
7:00 PM39 °FChilly.8 mph90%29.77 "HgN/A
6:00 PM39 °FChilly.7 mph88%29.79 "HgN/A
5:00 PM39 °FChilly.8 mph85%29.80 "HgN/A
4:00 PM39 °FChilly.7 mph87%29.83 "HgN/A
3:00 PM39 °FChilly.9 mph85%29.86 "HgN/A
2:00 PM39 °FChilly.9 mph85%29.88 "HgN/A
1:00 PM39 °FChilly.10 mph84%29.90 "HgN/A
12:00 PM38 °FChilly.9 mph89%29.93 "HgN/A
11:00 AM38 °FChilly.10 mph88%29.95 "HgN/A
10:00 AM38 °FChilly.10 mph88%29.95 "HgN/A
9:00 AM37 °FChilly.10 mph88%29.97 "HgN/A
8:00 AM36 °FChilly.12 mph91%29.97 "HgN/A
Weather by CustomWeather, © 2015

See weather overviewHow to use our weather pages